Location: Unspecified
(56.0000°N, 0.0000°E)
Time: 10:19:20
(UTC+00:00)

FENGYUN 1C DEB - Visible Passes

Search period start: 04 April 2026 00:00
Search period end: 14 April 2026 00:00
Orbit: 750 x 1071 km, 102.7° (Epoch: 29 March)

Date Brightness Start Highest point End Pass type
(mag) Time Alt. Az. Time Alt. Az. Time Alt. Az.
4 Apr ? 00:43:50 10° NE 00:47:39 19° E 00:48:27 19° ESE visible
4 Apr ? 02:24:25 10° NNE 02:30:00 89° ESE 02:31:43 45° SSW visible
4 Apr ? 04:06:21 10° NNE 04:10:53 26° NW 04:14:59 11° W visible
5 Apr ? 00:49:16 10° NE 00:53:12 20° E 00:54:09 19° ESE visible
5 Apr ? 02:29:57 10° NNE 02:35:30 87° WNW 02:37:24 41° SSW visible
5 Apr ? 04:11:55 10° N 04:16:20 25° NW 04:20:29 10° W visible
6 Apr ? 00:54:42 10° NE 00:58:45 21° E 00:59:50 20° ESE visible
6 Apr ? 02:35:29 10° NNE 02:40:59 82° WNW 02:43:05 37° SSW visible
6 Apr ? 04:17:29 10° N 04:21:46 24° NW 04:25:50 10° W visible
7 Apr ? 01:00:07 10° NE 01:04:18 23° E 01:05:30 21° ESE visible
7 Apr ? 02:41:00 10° NNE 02:46:28 78° WNW 02:48:46 34° SW visible
7 Apr ? 04:23:02 10° N 04:27:12 23° NW 04:31:10 10° W visible
8 Apr ? 01:05:34 10° NE 01:09:49 24° E 01:11:11 21° ESE visible
8 Apr ? 02:46:31 10° NNE 02:51:56 74° WNW 02:54:27 31° SW visible
8 Apr ? 04:28:35 10° N 04:32:38 22° NW 04:36:29 10° W visible
9 Apr ? 01:11:00 10° NE 01:15:20 25° E 01:16:51 22° ESE visible
9 Apr ? 02:52:01 10° NNE 02:57:24 70° WNW 03:00:07 28° SW visible
10 Apr ? 01:16:26 10° NE 01:20:51 27° E 01:22:30 22° SE visible
10 Apr ? 02:57:31 10° NNE 03:02:51 66° WNW 03:05:46 25° SW visible
11 Apr ? 01:21:51 10° NE 01:26:22 28° E 01:28:10 23° SE visible
11 Apr ? 03:03:01 10° NNE 03:08:18 62° WNW 03:11:25 23° SW visible
12 Apr ? 01:27:16 10° NE 01:31:51 30° E 01:33:49 23° SE visible
12 Apr ? 03:08:31 10° NNE 03:13:44 59° WNW 03:17:05 20° SW visible
13 Apr ? 01:32:42 10° NE 01:37:20 31° E 01:39:28 23° SE visible
13 Apr ? 03:14:00 10° NNE 03:19:10 55° WNW 03:22:43 18° SW visible
